STARLINK-4602, 53629

Orbit data source: Space-Track

STARLINK-4602, 53629 is a payload satellite owned by SpaceX/Seattle (US) in LEO that was launched on Sun, 28 Aug 2022 UTC via an FALCON 9 launch vehicle from the Air Force Eastern Test Range (AFETR). Payload-class satellites include a variety of spacecraft equipped with specific instruments for various scientific and technological missions. These include communications satellites like Starlink; space stations such as the ISS; scientific satellites like the Hubble; Earth observation satellites from companies like Planet Labs, Umbra, and HawkEye 360; GPS; miniature CubeSats for education and research; and military/defense satellites.

Loading next visibility...
Identifier
53629, 2022-104AT
Orbit
LEO
Country
Flag of USUS
Related business
Manufacturer
SpaceX/Seattle
Mission
Operational Commercial Communications
Bus & Motor
STARLINK, Unknown motor
Mass
300 kg wet, ~290 kg dry
Launch date (UTC)
2022-08-28 (3 years ago)
Launch vehicle
FALCON 9
Launch site
Air Force Eastern Test Range (AFETR)
Object type
Payload
Rocket body
Debris
Shape & HBR
Box + 1 Pan, 10.1 m
Radar Cross Section
13.562 m², Large (>1 m²)

Expand to show TLE details & history
Last TLE update: 20 hours ago

TLE from 20 hours ago
0 STARLINK-4602
1 53629U 22104AT  26036.65675343  .00000888  00000-0  73873-4 0  9996
2 53629  53.2190  17.6015 0001455  89.0082 271.1076 15.08842759190923
Epoch: 2026-02-05T15:45Z
TLE epoch observation values (Epoch: 2026-02-05T15:45:43.496Z)
Latitude
-0.00009°
Longitude
5.36436°
Altitude
540.613 km
Speed
7.593 km/s
True Right ascension
01h 10m 24s
True Declination
0° 00' 00"
Sunlit
Object was in daylight at epoch
Visualization orbit readout
Latitude
Unknown
Longitude
Unknown
Altitude
Unknown
Speed
Unknown
Apparent Right ascension
Unknown
Apparent Declination
Unknown
Sunlit
N/A
Visualization observer readout
Local Sidereal Time
13:55:05
Azimuth
Unknown
Elevation
Unknown
Doppler factor
Unknown
Orbital elements
Apogee altitude
540.986 km
Perigee altitude
538.973 km
Semi-major axis
6,918.117 km
Eccentricity
0.00015
Inclination
53.219°
RAAN
17.6015°
Arg. of periapsis
89.0082°
True anomaly
271.09093°
Mean anomaly
271.1076°
Eccentric anomaly
271.09926°
Mean motion
3.77191 °/min
Orbital period
95.44 mins
BSTAR
0.000073873
Loading maneuver chart data...
Computing Atmospheric mass density...
Loading historical data...
Loading historical data...
Loading historical data...
Loading historical data...
Loading historical data...
Loading historical data...
Loading historical data...

Documentation

Showing up to 5 results
|